• MPC Preparation (Info)

  • MPEC 2014-S39 : 2014 SV141

    The following Minor Planet Electronic Circular may be linked-to from your own Web pages, but must not otherwise be redistributed electronically.

    A form allowing access to any MPEC is at the bottom of this page.


    Read MPEC 2014-S38 Read MPEC 2014-S40


    M.P.E.C. 2014-S39                                Issued 2014 Sept. 22, 23:14 UT
    
         The Minor Planet Electronic Circulars contain information on unusual
             minor planets and routine data on comets.  They are published
       on behalf of Commission 20 of the International Astronomical Union by the
              Minor Planet Center, Smithsonian Astrophysical Observatory,
                              Cambridge, MA 02138, U.S.A.
    
                 Prepared using the Tamkin Foundation Computer Network
    
                                  MPC@CFA.HARVARD.EDU
                URL https://www.minorplanetcenter.net/    ISSN 1523-6714
    
                                      2014 SV141
    
    Observations:
         K14SE1V* C2014 09 18.38125 22 07 11.187-23 10 09.83         19.3 wLES039F51
         K14SE1V  C2014 09 18.39244 22 07 15.011-23 10 08.37         19.3 wLES039F51
         K14SE1V  C2014 09 18.40364 22 07 18.828-23 10 06.55         19.3 wLES039F51
         K14SE1V  C2014 09 18.41481 22 07 22.662-23 10 04.80         19.3 wLES039F51
         K14SE1V KC2014 09 19.15901 22 11 47.12 -23 08 15.9          19.1 VqES039H21
         K14SE1V KC2014 09 19.16303 22 11 48.43 -23 08 15.2          19.4 VqES039H21
         K14SE1V KC2014 09 19.16690 22 11 49.72 -23 08 14.7          19.4 VqES039H21
         K14SE1V KC2014 09 19.20448 22 12 02.40 -23 08 06.9          19.0 RqES039H36
         K14SE1V KC2014 09 19.22149 22 12 07.98 -23 08 03.6          19.3 RqES039H36
         K14SE1V KC2014 09 19.22500 22 12 09.13 -23 08 02.9          18.9 RqES039H36
         K14SE1V KC2014 09 19.29379922 12 30.68 -23 06 54.6          18.8 RqES039W86
         K14SE1V _C2014 09 19.29541322 12 35.143-23 07 38.53         18.9 RtES039568
         K14SE1V _C2014 09 19.29666922 12 35.555-23 07 38.38         18.8 RtES039568
         K14SE1V _C2014 09 19.29792122 12 35.960-23 07 38.13         18.9 RtES039568
         K14SE1V KC2014 09 19.29804222 12 32.11 -23 06 53.5          19.1 RqES039W86
         K14SE1V KC2014 09 19.30337122 12 33.88 -23 06 52.0          19.1 RqES039W86
         K14SE1V `C2014 09 19.47587 22 13 36.42 -23 06 19.8                qES039D90
         K14SE1V `C2014 09 19.47777 22 13 37.11 -23 06 20.5          21.0 RqES039D90
         K14SE1V `C2014 09 19.47966 22 13 37.73 -23 06 20.7                qES039D90
         K14SE1V KC2014 09 19.54788 22 13 59.09 -23 06 06.6          18.9 VqES039E23
         K14SE1V KC2014 09 19.55899 22 14 02.64 -23 06 04.3          19.0 VqES039E23
         K14SE1V KC2014 09 19.57010 22 14 06.22 -23 06 02.1          18.9 VqES039E23
         K14SE1V |C2014 09 20.08093 22 16 57.73 -23 04 05.2          19.5 VuES039807
         K14SE1V |C2014 09 20.08486 22 16 58.95 -23 04 04.1          19.5 VuES039807
         K14SE1V |C2014 09 20.08879 22 17 00.16 -23 04 02.9          19.1 VuES039807
         K14SE1V  C2014 09 20.33207 22 18 19.073-23 03 37.42         19.8 wLES039F51
         K14SE1V  C2014 09 20.34328 22 18 22.475-23 03 34.73         19.8 wLES039F51
         K14SE1V  C2014 09 20.35718 22 18 26.673-23 03 31.16         19.6 wLES039F51
         K14SE1V  C2014 09 20.36836 22 18 30.047-23 03 28.01         19.7 wLES039F51
         K14SE1V |C2014 09 21.03498 22 22 01.85 -22 59 35.1          19.8 VuES039807
         K14SE1V |C2014 09 21.03976 22 22 03.25 -22 59 34.0          19.9 VuES039807
         K14SE1V |C2014 09 21.04454 22 22 04.66 -22 59 33.1          20.1 VuES039807
         K14SE1V KC2014 09 21.90591 22 26 22.84 -22 55 34.3          19.3 RtES039204
         K14SE1V KC2014 09 21.92114 22 26 27.09 -22 55 27.7                tES039204
         K14SE1V  C2014 09 22.55694 22 29 29.25 -22 50 33.4          19.2 RtES039474
         K14SE1V  C2014 09 22.55765 22 29 29.44 -22 50 32.8          19.3 RtES039474
         K14SE1V  C2014 09 22.56257 22 29 30.78 -22 50 31.9          19.9 RtES039474
         K14SE1V  C2014 09 22.56328 22 29 30.95 -22 50 30.6          19.0 RtES039474
    
    Observer details:
    204 Schiaparelli Observatory.  Observer L. Buzzi.  0.60-m f/4.64 reflector
        + CCD.
    474 Mount John Observatory, Lake Tekapo.  Observers A. C. Gilmore,
        P. M. Kilmartin.  Measurer P. M. Kilmartin.  1.0-m f/7.7 reflector + CCD.
    568 Mauna Kea.  Observers R. J. Wainscoat, A. Draginda.  Measurers M. Micheli,
        R. J. Wainscoat.  3.6-m Canada-France-Hawaii Telescope + CCD.
    807 Cerro Tololo.  Observers T. Linder, R. Holmes.  Measurers T. Linder,
        R. Holmes, K. Baker.  0.41-m f/11 Ritchey-Chretien + CCD.
    D90 RAS Observatory, Moorook.  Observer K. Hills.  0.41-m f/9 Ritchey-Chretien
        + CCD.
    E23 Arcadia.  Observer A. Hidas.  0.35-m Schmidt-Cassegrain + CCD.
    F51 Pan-STARRS 1, Haleakala.  Observers N. Primak, A. Schultz, T. Goggia,
        M. Willman.  Measurers B. Bolin, K. Chambers, S. Chastel, L. Denneau,
        H. Flewelling, M. Huber, E. Magnier, E. Schunova, R. Wainscoat, C. Waters.
        1.8-m Ritchey-Chretien + CCD.
    H21 Astronomical Research Observatory, Westfield.  Observer R. Holmes.
        Measurers L. Buzzi, S. Foglia, T. Vorobjov, T. Linder.  0.61-m f/4.0
        astrograph + CCD.
    H36 Sandlot Observatory, Scranton.  Observer G. Hug.  0.56-m reflector + CCD.
    W86 Cerro Tololo-LCOGT B.  Observer T. Lister.  1.0-m f/8 Ritchey-Chretien
        + CCD.
    
    Orbital elements:
    2014 SV141                                          PHA, Earth MOID = 0.0496 AU
    Epoch 2014 Dec. 9.0 TT = JDT 2457000.5                  MPC
    M  40.57313              (2000.0)            P               Q
    n   0.31593333     Peri.  141.68795     +0.50673687     +0.86067544
    a   2.1350387      Node   158.61946     -0.82069377     +0.49920042
    e   0.5241705      Incl.    7.81218     -0.26396870     +0.10018346
    P   3.12           H   21.5           G   0.15           U   7
    Residuals in seconds of arc
    140918 F51  0.0   0.1+    140919 568  0.1+  0.1-    140920 F51  0.1+  0.0
    140918 F51  0.0   0.1-    140919 W86  0.0   0.3-    140920 F51  0.0   0.1-
    140918 F51  0.1-  0.0     140919 W86  0.1-  0.3-    140920 F51  0.1-  0.1+
    140918 F51  0.1+  0.0     140919 D90  0.8-  1.0+    140921 807  0.2+  0.4+
    140919 H21  0.0   0.1+    140919 D90  0.2+  0.1-    140921 807  0.1+  0.3+
    140919 H21  0.2-  0.0     140919 D90  0.4+  0.6-    140921 807  0.2+  0.1-
    140919 H21  0.1+  0.2-    140919 E23  0.1+  0.3+    140921 204  0.5+  0.7-
    140919 H36  0.2-  0.2+    140919 E23  0.0   0.1-    140921 204  0.3+  0.4+
    140919 H36  0.2-  0.1+    140919 E23  0.3+  0.6-    140922 474  0.1-  0.1+
    140919 H36  0.2-  0.1+    140920 807  0.1-  0.1-    140922 474  0.1-  0.4+
    140919 W86  0.1-  0.2-    140920 807  0.0   0.2+    140922 474  0.1-  0.8-
    140919 568  0.0   0.1-    140920 807  0.1-  0.5+    140922 474  0.4-  0.1+
    140919 568  0.1+  0.2-    140920 F51  0.0   0.1+
    
    Ephemeris:
    2014 SV141               a,e,i = 2.14, 0.52, 8                   q = 1.0159
    Date    TT    R. A. (2000) Decl.     Delta      r     Elong.  Phase     V
    2014 08 23    17 09 10.4 -03 40 25   0.1086  1.0465   106.0    68.3    19.2
    ...
    2014 09 07    20 28 20.3 -20 56 50   0.1214  1.1038   140.1    35.8    18.6
    ...
    2014 09 15    21 44 29.2 -23 07 32   0.1597  1.1438   147.6    28.1    19.1
    ...
    2014 09 21    22 21 49.2 -22 59 55   0.1969  1.1773   148.9    26.1    19.5
    2014 09 22    22 26 50.1 -22 54 20   0.2037  1.1831   149.0    25.9    19.6
    2014 09 23    22 31 34.1 -22 47 55   0.2106  1.1890   148.9    25.8    19.7
    ...
    2014 09 29    22 55 08.3 -21 56 37   0.2547  1.2255   148.1    25.6    20.1
    ...
    2014 10 07    23 17 40.6 -20 28 43   0.3204  1.2772   145.7    26.1    20.7
    ...
    2014 10 22    23 46 12.7 -17 19 49   0.4634  1.3801   139.3    28.1    21.8
    
    A. U. Tomatic                (C) Copyright 2014 MPC           M.P.E.C. 2014-S39
    

    Read MPEC 2014-S38 Read MPEC 2014-S40


    MPEC number:

    Enter an MPEC number in one of the following forms:

    • 1997-B01 (the full form)
    • J97B01 (the packed version of the full form)
    • B01 (the abbreviated form)